User: anonymous   Login
Location: Unspecified
(0.0000°N, 0.0000°E)
Time: 12:58:09
(UTC+02:00)
Language:

Cosmos 1933 - Orbit

View from above orbital plane
View from above orbital plane
View from above satellite
View from above satellite

Ground track
Ground track

The orbit data is extracted from the following two-line orbital elements,

1 18958U 88020A   15108.50978158  .00003070  00000-0  23203-3 0  9990
2 18958 082.5288 146.2350 0013861 090.7336 269.5477 15.01974346472782
Epoch (UTC): 18 April 2015 12:14:05
Eccentricity: 0.0013861
inclination: 82.5288°
perigee height: 551 km
apogee height: 570 km
right ascension of ascending node: 146.2350°
argument of perigee: 90.7336°
revolutions per day: 15.01974346
mean anomaly at epoch: 269.5477°
orbit number at epoch: 47278

The dashed part of the orbit path shows where the satellite is in the earth's shadow,  

DLR